Theta_e
316 315 319 328 330 330 318 334 339 340 340 337 335 334 334 337 338 340 339 339 339 338 341 341 341 341 340 337 335 335 331 321 324 318 318 317 317 317 317 318 319 319 320
313 313 321 329 328 327 319 326 338 338 339 339 337 338 336 336 335 335 337 339 340 340 341 340 339 338 338 337 334 330 324 320 322 318 317 310 312 314 313 312 314 315 316
312 314 325 325 326 327 322 327 337 337 339 339 334 332 334 331 329 333 333 336 339 341 342 341 340 338 337 336 335 332 327 318 320 322 317 310 308 309 311 310 309 310 311
315 322 323 323 325 327 334 337 337 336 338 334 334 333 334 330 331 331 328 327 330 332 334 338 337 337 335 335 334 332 329 324 318 319 318 317 315 309 304 306 305 305 303
319 322 322 322 325 328 331 334 334 335 333 334 335 334 332 335 329 327 327 322 320 320 320 323 326 327 327 329 327 323 325 324 321 318 315 313 311 310 306 299 302 303 302
319 319 318 321 325 328 328 330 331 329 334 336 337 336 330 326 325 323 323 320 318 318 319 317 320 321 321 321 322 322 322 323 321 319 317 314 311 307 308 303 300 299 300
318 318 317 322 324 325 326 328 328 326 329 331 333 333 333 328 329 324 323 318 318 317 318 315 315 318 321 318 319 320 319 319 320 318 316 317 313 312 308 307 301 298 297
317 318 318 317 322 322 325 326 326 324 326 327 327 329 330 329 328 327 324 323 323 321 318 315 315 318 319 319 321 321 321 320 319 317 316 314 313 311 310 306 300 297 297
317 318 317 316 320 320 321 323 322 320 320 320 321 321 321 321 319 318 317 317 317 315 316 315 314 314 316 315 317 315 316 316 313 314 312 311 311 311 310 309 306 301 294
316 317 317 317 317 317 317 318 319 318 316 314 316 316 317 316 314 313 313 312 312 312 312 312 311 312 310 310 310 311 310 310 308 307 307 307 310 309 308 307 307 306 302
316 317 317 318 317 316 317 315 314 314 314 314 314 313 313 312 312 312 311 311 311 311 310 310 309 307 306 306 307 308 306 306 305 305 308 308 308 307 305 306 305 304 301
314 315 317 317 317 316 316 314 312 312 313 312 313 313 313 313 312 312 310 309 310 310 309 309 308 306 305 305 304 303 303 303 303 305 304 305 302 303 304 304 300 299 299
310 312 315 315 314 314 315 315 314 312 312 312 312 312 312 312 312 312 311 311 310 310 309 307 306 305 303 302 302 302 301 302 302 300 300 299 299 297 297 299 298 297 297
308 309 310 312 313 314 313 313 312 313 312 311 310 310 310 310 310 310 309 309 309 308 307 307 306 305 303 302 302 301 300 299 300 300 302 302 302 300 298 297 295 295 295
304 306 307 308 309 309 310 310 311 312 312 311 310 309 310 309 308 307 307 307 306 305 305 305 305 305 303 301 301 300 300 299 298 299 299 298 298 296 295 295 294 295 295
304 304 305 305 306 306 307 307 307 308 309 308 308 309 310 310 308 308 307 307 307 306 305 304 303 302 301 296 294 298 297 297 299 296 294 292 294 292 291 292 293 297 298
297 298 298 299 299 299 300 300 302 303 303 302 302 302 302 303 306 308 307 307 306 306 303 302 301 300 301 294 294 292 297 296 296 297 294 292 290 292 291 290 290 289 290
296 295 295 295 296 297 297 298 299 299 299 299 298 299 299 300 301 303 304 304 305 304 303 303 301 300 299 294 293 291 295 293 292 289 290 291 289 290 291 291 290 288 289
294 295 297 296 296 296 296 295 295 295 295 295 295 296 296 296 297 297 297 300 302 303 303 293 300 298 290 292 292 290 291 287 287 287 288 288 287 288 289 286 286 285 286
295 294 295 294 295 294 295 294 294 293 293 293 294 294 294 294 291 294 296 296 298 299 300 298 293 292 292 291 291 291 289 288 287 287 289 288 287 288 287 287 285 285 284
294 295 294 295 295 294 292 292 292 292 293 293 292 292 293 293 295 294 295 296 297 295 293 292 291 290 289 289 291 291 290 289 287 286 285 286 287 288 287 287 287 287 285
295 295 294 292 292 293 293 293 292 293 292 291 291 291 292 291 292 293 294 294 293 289 288 288 289 290 288 289 290 291 290 290 288 286 286 286 286 287 287 285 285 284 284
295 293 292 292 293 293 293 291 291 292 291 290 291 291 290 290 291 290 291 292 293 293 294 292 290 290 290 289 289 290 290 289 287 287 286 285 285 286 285 284 284 282 284
291 291 292 292 291 292 292 291 291 291 290 290 289 290 289 289 290 291 291 291 292 291 291 293 292 292 293 292 292 290 290 287 286 286 286 285 284 285 285 283 281 284 284
292 293 293 292 291 291 290 290 290 290 289 289 288 287 287 288 288 289 290 290 292 291 290 291 292 291 291 292 292 290 289 288 286 285 285 283 284 280 283 281 280 282 282
292 292 292 291 290 289 289 290 290 289 288 286 286 287 286 286 285 285 286 288 288 288 288 288 288 291 290 290 290 289 289 288 285 285 284 283 282 281 281 279 278 279 280
Wind_Speed
18 10 7 4 8 11 12 16 16 16 14 12 11 9 11 7 8 7 9 9 8 9 12 9 9 9 9 10 9 7 8 2 6 5 3 2 2 3 2 2 6 9 8
13 12 7 5 6 9 9 13 14 15 13 10 10 6 7 5 5 5 7 11 13 12 11 11 9 10 8 9 9 8 3 3 8 3 1 3 0 1 2 2 1 6 5
13 11 5 6 6 6 5 12 13 14 13 13 8 6 7 4 3 6 6 7 10 10 11 11 9 10 9 8 9 9 10 6 7 5 3 3 4 3 1 1 4 5 2
5 3 2 4 6 6 3 9 12 14 12 14 11 13 8 7 5 4 4 4 4 4 5 6 8 8 6 8 8 8 7 6 7 4 2 1 3 3 3 1 3 6 6
6 5 2 3 3 3 4 7 11 12 12 12 11 8 7 5 4 4 7 4 4 4 3 2 3 4 3 5 5 4 6 7 5 5 3 1 2 3 3 5 4 4 5
8 6 3 4 3 3 5 7 9 7 10 10 11 11 10 7 6 5 5 4 2 2 3 2 2 3 4 4 4 5 8 8 7 8 7 8 6 5 5 3 4 6 3
9 9 8 6 5 5 5 6 9 8 8 8 8 8 9 9 8 7 4 5 4 3 4 4 4 4 5 4 5 7 8 9 9 10 7 6 5 3 3 4 4 4 3
10 9 8 7 7 5 6 7 8 7 7 7 6 5 6 4 4 6 6 3 2 2 5 6 6 5 6 6 7 7 6 6 7 11 9 6 4 5 5 6 9 4 3
10 9 6 7 7 7 5 7 8 8 7 7 5 6 6 6 5 5 4 3 4 1 1 3 4 3 5 5 6 3 6 7 4 4 5 5 5 5 5 6 10 9 6
12 10 8 8 7 8 7 8 7 8 8 7 6 5 6 6 6 4 4 3 2 1 3 3 5 5 4 4 5 5 5 5 2 3 6 4 6 6 4 6 7 4 7
13 11 9 8 8 8 9 9 8 8 7 7 6 7 6 6 5 4 3 3 1 2 3 3 4 5 5 5 6 7 6 6 5 5 6 7 7 6 5 5 3 4 4
8 8 9 10 10 9 9 9 9 8 7 6 7 6 6 5 5 5 4 4 3 3 4 5 6 5 4 5 6 5 4 6 8 8 7 7 4 6 8 6 7 6 5
8 8 9 8 9 9 9 9 8 7 6 6 6 5 5 4 4 3 3 2 2 3 4 5 5 7 8 6 5 6 6 6 6 7 7 8 8 7 5 8 8 6 5
10 10 11 10 9 9 9 8 6 6 5 4 3 3 1 0 1 1 2 2 3 4 5 6 7 8 7 8 8 7 7 7 7 7 9 11 12 11 10 8 9 8 8
9 10 11 11 11 10 8 8 6 6 6 5 4 3 3 3 4 4 4 4 6 6 7 7 9 8 7 6 9 9 9 7 7 7 8 8 9 12 9 7 8 10 8
14 14 14 13 12 12 11 9 8 7 6 6 4 4 5 5 4 2 4 5 6 6 7 7 8 8 5 9 13 10 7 9 11 10 7 6 7 8 10 6 8 10 13
14 13 9 10 11 10 8 8 7 5 5 4 3 3 6 7 5 4 4 5 5 6 7 7 7 9 10 12 14 14 7 7 9 11 10 7 6 10 9 9 10 5 3
17 16 13 10 8 7 6 6 6 6 5 5 5 5 4 4 4 4 5 6 6 7 7 9 8 10 9 13 14 16 11 8 10 9 10 10 8 8 10 10 9 4 3
12 12 12 10 9 9 6 5 5 5 3 3 3 3 4 5 5 5 5 7 7 8 8 4 11 11 9 12 15 12 8 7 7 6 5 8 9 14 17 12 11 6 1
11 10 10 9 9 5 4 3 3 2 3 3 4 5 4 5 4 7 8 3 6 9 8 11 7 9 11 9 12 13 7 8 7 7 11 12 12 21 21 14 14 11 8
13 10 9 8 8 6 5 4 4 4 2 3 3 3 4 5 7 6 6 8 7 8 9 9 7 7 8 8 14 18 9 9 8 7 7 7 17 22 23 18 13 12 12
13 13 10 8 6 6 6 5 4 1 2 2 4 5 5 5 6 9 8 8 7 7 8 6 10 9 7 12 12 17 21 13 10 11 10 10 20 19 21 16 15 22 14
15 11 10 9 8 7 5 4 2 2 4 5 6 6 6 7 7 8 8 8 7 8 8 8 8 8 5 5 12 15 22 20 11 8 13 14 18 17 13 17 24 18 9
12 10 10 9 7 5 3 1 3 3 4 7 7 7 8 9 8 7 7 8 7 7 9 8 10 9 8 6 6 8 9 16 12 9 11 15 16 15 8 12 14 9 9
10 9 9 6 4 3 1 3 4 4 6 7 7 8 7 9 10 9 9 9 10 10 10 10 10 9 9 9 9 9 8 9 11 9 8 10 10 10 11 9 9 10 9
9 8 7 5 4 2 4 4 5 4 5 7 7 7 8 7 7 9 11 14 16 15 18 19 15 11 14 12 13 17 18 18 16 9 10 11 13 13 12 11 11 9 11
Wind_Direction
279 286 295 294 273 255 228 215 197 185 172 178 175 186 194 187 200 195 188 193 193 198 207 210 208 205 212 211 205 197 193 147 145 114 124 111 128 153 170 241 181 157 172
283 286 308 325 309 287 246 206 193 178 183 177 179 180 177 188 185 180 192 198 202 202 209 207 204 207 213 218 195 185 154 135 176 165 63 154 214 315 88 359 1 138 148
284 306 327 2 348 328 237 191 171 169 175 169 140 111 127 113 142 185 188 193 202 200 208 214 212 211 209 211 208 201 189 187 195 219 155 203 196 153 109 112 19 51 33
271 260 7 18 2 360 115 146 153 164 162 154 161 162 173 173 185 163 146 165 171 174 208 218 211 216 207 216 206 197 199 171 190 209 199 219 138 176 172 135 129 92 60
213 193 112 64 19 27 97 124 139 148 146 157 167 164 169 164 144 143 156 144 147 141 143 191 206 203 194 213 202 175 200 194 187 187 168 166 117 105 147 156 178 106 127
188 179 145 113 93 94 109 112 120 121 149 163 169 172 163 159 145 142 155 156 164 153 174 166 181 205 205 195 197 194 205 209 207 194 185 183 180 174 162 135 141 125 116
185 186 174 149 137 129 116 115 131 132 139 149 158 169 166 170 169 160 155 165 165 192 186 168 177 190 213 206 198 211 209 198 199 197 200 196 196 135 116 122 125 137 132
194 193 184 152 144 129 127 119 120 113 115 114 115 122 139 142 138 151 153 166 195 200 176 181 197 199 213 202 203 214 228 217 210 198 193 190 175 153 162 152 140 121 159
188 195 181 149 141 130 97 103 100 91 86 91 91 81 78 80 83 78 84 109 126 108 270 238 231 221 233 227 227 214 199 201 183 192 170 155 172 169 170 169 170 151 158
185 185 178 147 116 116 113 82 86 93 90 87 94 95 94 90 91 90 82 68 60 127 178 209 229 234 231 216 205 201 187 176 167 164 159 165 174 175 156 169 182 179 154
186 182 161 139 121 123 118 109 101 97 91 94 83 86 85 87 87 91 102 106 142 209 245 247 248 227 204 197 206 202 179 179 173 178 189 195 181 176 162 157 176 160 122
174 162 158 148 141 125 119 113 111 105 100 101 105 108 114 121 119 114 121 173 193 189 201 209 212 219 221 210 207 191 176 173 178 184 176 181 164 170 162 164 156 153 151
138 130 135 142 136 130 119 110 108 119 133 130 120 120 122 136 139 154 173 182 231 237 239 233 228 213 192 212 203 186 186 192 199 177 173 164 164 159 165 154 146 143 137
156 148 138 128 126 125 124 122 126 126 125 113 112 108 109 329 265 232 218 253 264 254 237 242 239 235 221 202 206 203 197 190 198 186 188 184 186 173 169 158 153 145 136
153 145 134 130 125 116 104 100 108 121 139 151 153 197 223 218 212 213 222 225 227 228 237 238 241 226 219 224 213 210 201 197 199 202 199 192 190 170 173 164 162 152 140
157 146 135 131 131 129 128 131 136 131 136 125 129 153 174 164 181 223 246 241 247 252 247 237 245 241 223 221 216 219 205 192 202 199 199 174 167 167 166 179 165 179 157
144 135 131 130 128 126 132 127 121 107 99 100 81 46 28 20 358 300 274 275 264 259 249 244 239 240 240 220 216 208 213 204 207 201 189 194 180 166 167 149 122 106 128
159 147 146 138 117 111 87 81 63 57 41 31 16 9 4 325 319 313 290 292 286 275 255 256 248 251 242 222 212 204 211 209 204 188 186 178 184 168 160 146 136 121 82
152 144 131 122 111 96 87 74 48 31 8 348 333 332 325 306 304 311 295 287 295 283 265 218 238 237 241 220 215 197 206 206 198 173 190 176 173 160 155 139 136 137 125
143 114 102 95 84 77 111 164 216 262 277 307 311 309 298 281 296 301 304 276 260 260 268 269 231 230 251 224 219 197 199 215 215 199 160 204 188 171 163 159 152 153 173
138 118 111 135 172 176 166 191 198 223 229 262 267 293 310 309 298 291 277 283 270 263 262 256 247 230 224 239 213 206 202 214 197 206 186 192 200 177 171 167 163 160 145
150 151 159 183 174 166 173 182 224 222 276 307 320 306 307 307 300 296 295 283 271 258 262 255 270 259 235 227 220 211 215 209 201 201 189 179 189 186 177 160 148 141 135
167 168 167 157 159 165 170 187 210 324 326 320 311 304 296 298 294 290 284 288 281 273 268 255 254 259 243 234 230 223 219 215 213 196 173 154 179 185 177 163 149 146 147
152 151 153 157 160 158 131 35 316 307 294 290 297 310 304 299 291 289 286 285 279 270 266 261 261 254 246 225 218 217 216 212 204 188 171 161 168 165 178 163 153 154 163
142 153 160 159 150 145 242 286 266 278 285 296 303 304 304 306 304 293 290 279 268 262 269 265 261 258 253 243 226 204 195 199 199 166 150 154 162 158 168 172 171 160 163
147 146 146 156 167 210 259 270 289 299 302 295 291 288 287 284 281 285 285 263 262 257 260 261 255 267 267 250 216 204 207 200 171 171 174 183 168 175 172 178 172 163 174